Location: ????????
(55.0559°N, 39.1270°E)
Time: 09:13:30
(UTC+00:00)

SL-08 RB Rocket - Pass Details

Date: 15 November 2025
Orbit: 632 x 668 km, 97.8° (Epoch: 14 December)

Event Time Altitude Azimuth Distance (km) Brightness Sun altitude
Rises 02:58:36 0° 9° (N) 3,012 7.1 -16.4°
Reaches altitude 10° 03:01:02 10° 359° (N) 2,089 6.2 -16.1°
Maximum altitude 03:05:00 31° 299° (WNW) 1,160 4.4 -15.5°
Enters shadow 03:06:36 24° 263° (W) 1,346 4.7 -15.3°
